Hourly Data Report for March 06, 2001

SHERBROOKE A
QUEBEC

45°26'00.000" N
71°41'00.000" W
241.40 m
7028124
71610
YSC

Download Data

Hourly Data (March 2001)
Hourly Data Report for March 6, 2001
TIME
LST
Temp Definition
°C
Dew Point Definition
°C
Rel Hum Definition
%
Precip. Amount Definition
mm

Wind Dir Definition
10's deg

Wind Spd Definition
km/h
Visibility Definition
km
Stn Press Definition
kPa
Hmdx Definition


Wind Chill Definition


Weather Definition


00:00 -2.8 -6.4 76   4 17 15.0 97.16   -8 Snow
01:00 -2.4 -6.5 73   5 22 6.4 97.10   -9 Snow
02:00 -2.4 -6.8 72   4 19 15.0 97.00   -8 Snow
03:00 -2.8 -6.7 74   5 24 15.0 96.93   -9  
04:00 -2.8 -7.0 73   5 22 15.0 96.93   -9  
05:00 -2.8 -7.2 72   4 19 15.0 96.90   -9  
06:00 -2.8 -7.5 70   4 19 15.0 96.93   -9  
07:00 -2.8 -7.8 68   5 19 15.0 96.97   -9 Snow
08:00 -2.8 -8.0 67   6 28 12.9 97.00   -10 Snow
09:00 -2.8 -8.0 67   5 35 16.1 97.03   -11 Snow
10:00 -2.6 -8.3 65   4 26 12.9 97.03   -9 Snow
11:00 -2.8 -8.3 66   4 19 16.1 97.06   -9 Snow
12:00 -2.4 -8.5 63   3 26 4.8 97.06   -9 Snow
13:00 -1.3 -9.7 53   4 24 24.1 97.10   -7 Mostly Cloudy
14:00 -0.8 -10.0 50   4 32 24.1 97.13   -8 Mostly Cloudy
15:00 0.0 -10.1 46   4 30 24.1 97.20   -6 Mostly Cloudy
16:00 0.4 -10.5 44   5 28 24.1 97.23     Mostly Cloudy
17:00 -0.2 -8.2 55   2 24 24.1 97.36   -6 Mostly Cloudy
18:00 -1.2 -8.1 59   3 17 15.0 97.43   -6  
19:00 -2.0 -8.1 63   2 24 15.0 97.53   -8  
20:00 -2.3 -8.1 64   4 17 15.0 97.59   -8  
21:00 -2.8 -8.4 65   2 17 15.0 97.63   -8  
22:00 -2.9 -8.6 65   3 9 15.0 97.66   -6  
23:00 -3.3 -8.8 66   3 20 15.0 97.69   -9  

Notes on Data Quality.

Legend

  • E = Estimated
  • M = Missing
  • NA = Not Available*
  • [empty] = Indicates an unobserved value
Date modified: